FENGYUN 1C DEB

Satellite information

Favourite Embed

Satellite Type and Status

DEBRISIN ORBIT

Key statistics

Satellite FENGYUN 1C DEB at a glance.

Uptime

9495

Days in orbit

Revolutions

≈ 14.5

Per day

Orbit

SSO

Sun Synchronous Orbit

Inclination

98.1

Latest

Satellite identification and parameters

Extended collection of information and parameters for FENGYUN 1C DEB.

Object identification

Identified? True

Debris? True

Object name: FENGYUN 1C DEB

International designator: 1999-025ND

Object number (NORAD): 30028

Object ID (CCSDS): 30028

Country: PEOPLES REPUBLIC OF CHINA (PRC)

Current information (Y/N): Y

RCS size: SMALL

Orbital parameters

Period: 99.025 minutes

Inclination: 98.1336 deg

SMA: 7090.177 km

Apoapsis: 838.62 km

Periapsis: 585.464 km

RAAN: 125.6552 deg

Eccentricy: 0.0178526

Argument of periapsis: 186.6717 deg

Mean anomaly: 349.4963 deg

Mean motion: 14.54176668 rev/day

Mean motion (dot): 0.00001937 rev/day2

B* drag term: 0.00038035 1/REarth

Two-line elements (TLE)

Creation date: May 8, 2025, 3:01 a.m.

Reference frame: TEME

Reference center: EARTH

Epoch: May 7, 2025, 6:26 p.m. UTC

TLE line 0: 0 FENGYUN 1C DEB

TLE line 1: 1 30028U 99025ND 25127.76834924 .00001937 00000-0 38035-3 0 9990

TLE line 2: 2 30028 98.1336 125.6552 0178526 186.6717 349.4963 14.54176668965383

Live tracking on map

Real-time ground track for satellite FENGYUN 1C DEB.

In-orbit conjunctions

A list of the most updated potential collisions computed for object FENGYUN 1C DEB.

Target Orbit TCA Probability of collision Miss distance Type
COSMOS 2056 LEO 2025-03-26 00:56:05 0.0001854901 687.0 (m) PAYLOAD
THORAD AGENA D DEB LEO 2024-10-31 02:38:27 0.0001284837 376.0 (m) DEBRIS

Associated space launch

Chinese polar orbiting meteorological satellite

FENGYUN 1C DEB was lifted into orbit during the mission ‘Long March 4B | Feng Yun 1C’, on board a Long March 4B space rocket.

The launch took place on May 10, 1999, 1:33 a.m. from Launch Complex 7.

For more information about the launch, click the button.

Launch to space Long March 4B | Feng Yun 1C
Long March 4B | Feng Yun 1C

Agency: N/A

Status: Launch Successful

Launch date: May 10, 1999, 1:33 a.m. UTC

Rocket: Long March 4B

Launch pad: Launch Complex 7

Location: Taiyuan Satellite Launch Center, People's Republic of China

...

Latest news about this satellite

There are no fresh news available about this satellite. Check back as we update our databases every day.


Newsletter sign-up

Weekly statistics, charts and insights to help you stay on top of the space industry.